Skip Page Navigation
NASA JPL Caltech
NASA Logo - Jet Propulsion Laboratory + View the NASA Portal
+ Near-Earth Object (NEO) Program
Search JPL
JPL Home Earth Solar System Stars & Galaxies Technology
JPL Solar System Dynamics
BODIES ORBITS EPHEMERIDES TOOLS PHYSICAL DATA DISCOVERY FAQ SITE MAP
JPL Small-Body Database Browser
Search: [ help ]  
6161 Vojno-Yasenetsky (1971 TY2)
Classification: Main-belt Asteroid          SPK-ID: 2006161
Ephemeris | Orbit Diagram | Orbital Elements | Physical Parameters | Discovery Circumstances ]

[ show orbit diagram ]
Orbital Elements at Epoch 2456400.5 (2013-Apr-18.0) TDB
Reference: MPO247423 (heliocentric ecliptic J2000)
 Element Value Uncertainty (1-sigma)   Units 
e 0.2314752 n/a  
a 2.7852895 n/a AU
q 2.1405641 n/a AU
i 8.98102 n/a deg
node 280.28560 n/a deg
peri 181.62055 n/a deg
M 288.51992 n/a deg
tp 2456737.6215287
(2014-Mar-21.12152870)
n/a JED
period 1697.8681379
4.65
n/a
n/a
d
yr
n 0.21203060 n/a deg/d
Q 3.4300149 n/a AU
  Orbit Determination Parameters
   # obs. used (total)      728  
   first obs. used      1971-??-??  
   last obs. used      2012-12-02  
   # oppositions      16  
   planetary ephem.      DE403  
   condition code      0  
   fit RMS      0.52  
   data source      MPC:mpn  
   producer      MPCLINUX  

Additional Information
 T_jup = 3.274 

Ephemeris | Orbit Diagram | Orbital Elements | Physical Parameters | Discovery Circumstances ]

Physical Parameter Table
Parameter Symbol Value Units Sigma Reference Notes
absolute magnitude H 12.5 mag n/a PDS3 (MPC 24373)  

6161 Vojno-Yasenetsky           Discovered 1971 Oct. 14 by L. I. Chernykh at the Crimean Astrophysical Observatory.
Named in memory of Valentin Feliksovich Vojno-Yasenetsky (1877-1961), surgeon and bishop. As a physician, he practised in a number of district hospitals in central Russia, serving as head physician in the Tashkent urban hospital and as a professor at Central Asia University. In the early 1920s he took vows and was ordained as a bishop. During his life he published 55 scientific works on surgery and anatomy, winning the state prize in 1946. Although he was arrested many times and sent into exile for his views, when he died he had dignity as the archbishop of the Crimea and Simferopol.
NOTE: some special characters may not display properly (any characters within {} are an attempt to place the proper accent above a character)
Reference: 19980808/MPCPages.arcLast Updated: 2009-11-17

Alternate Designations
 1971 TY2 = 1990 XA1 
Ephemeris | Orbit Diagram | Orbital Elements | Physical Parameters | Discovery Circumstances ]
ABOUT SSD CREDITS/AWARDS PRIVACY/COPYRIGHT GLOSSARY LINKS
FirstGov 2013-Jun-19 22:32 UT
(server date/time)  
NASA Home Page
Site Manager:   Donald K. Yeomans
Webmaster  Alan B. Chamberlin